GLD965 SBSP-SBRJ

Flight info

Callsign GLD965
Flight time N/A
Altitude 23000
Route NIBRU UZ171 KEVUN
Aircraft PC12/L-SDFGRWY/S

Departure

Time 2026-05-06 22:54
Airport Congonhas–Deputado Freitas Nobre Airport (SBSP)

Arrival

Time N/A
Airport Santos Dumont Airport (SBRJ)
Time Latitude Longitude Altitude Speed Heading
2026-05-06 22:46 -23.62730 -46.65219 2627 ft 0 kts 216°
2026-05-06 22:48 -23.62712 -46.65269 2625 ft 17 kts 333°
2026-05-06 22:49 -23.62592 -46.65352 2623 ft 21 kts 331°
2026-05-06 22:49 -23.62460 -46.65449 2620 ft 27 kts 324°
2026-05-06 22:49 -23.62355 -46.65516 2618 ft 10 kts 329°
2026-05-06 22:49 -23.62274 -46.65573 2616 ft 16 kts 325°
2026-05-06 22:50 -23.62152 -46.65658 2611 ft 21 kts 329°
2026-05-06 22:50 -23.62111 -46.65700 2610 ft 11 kts 258°
2026-05-06 22:50 -23.62097 -46.65794 2609 ft 17 kts 322°
2026-05-06 22:50 -23.62049 -46.65890 2605 ft 19 kts 290°
2026-05-06 22:51 -23.62007 -46.66019 2595 ft 0 kts 257°
2026-05-06 22:52 -23.62008 -46.66026 2595 ft 4 kts 256°
2026-05-06 22:52 -23.62032 -46.66095 2588 ft 14 kts 242°
2026-05-06 22:52 -23.62094 -46.66046 2595 ft 18 kts 141°
2026-05-06 22:52 -23.62340 -46.65878 2604 ft 65 kts 148°
2026-05-06 22:53 -23.62819 -46.65536 2623 ft 97 kts 146°
2026-05-06 22:53 -23.63427 -46.65122 2778 ft 111 kts 148°
2026-05-06 22:53 -23.63885 -46.64362 2836 ft 149 kts 96°
2026-05-06 22:53 -23.63645 -46.63167 3176 ft 166 kts 73°
2026-05-06 22:54 -23.63318 -46.61969 3821 ft 165 kts 70°
2026-05-06 22:54 -23.62755 -46.60822 4218 ft 180 kts 64°
2026-05-06 22:54 -23.62342 -46.59461 4404 ft 199 kts 82°
2026-05-06 22:54 -23.62259 -46.57911 4671 ft 210 kts 90°
2026-05-06 22:55 -23.62234 -46.56279 4976 ft 218 kts 89°
2026-05-06 22:55 -23.62165 -46.54610 5280 ft 223 kts 87°
2026-05-06 22:55 -23.62081 -46.52902 5562 ft 227 kts 88°
2026-05-06 22:55 -23.62009 -46.51194 5840 ft 230 kts 88°
2026-05-06 22:56 -23.61941 -46.49442 6130 ft 232 kts 88°
2026-05-06 22:56 -23.61868 -46.47684 6425 ft 233 kts 88°
2026-05-06 22:56 -23.61792 -46.45910 6728 ft 235 kts 88°
2026-05-06 22:56 -23.61718 -46.44120 7011 ft 236 kts 88°
2026-05-06 22:57 -23.61642 -46.42329 7308 ft 237 kts 88°
2026-05-06 22:57 -23.61566 -46.40533 7672 ft 237 kts 88°
2026-05-06 22:57 -23.61488 -46.38727 7924 ft 238 kts 88°
2026-05-06 22:57 -23.61412 -46.36921 8206 ft 240 kts 88°
2026-05-06 22:58 -23.61331 -46.35097 8341 ft 245 kts 88°
2026-05-06 22:58 -23.61252 -46.33231 8510 ft 247 kts 88°
2026-05-06 22:58 -23.61171 -46.31356 8724 ft 248 kts 87°
2026-05-06 22:58 -23.61090 -46.29479 8982 ft 247 kts 87°
2026-05-06 22:59 -23.61010 -46.27612 9245 ft 247 kts 87°
2026-05-06 22:59 -23.60932 -46.25737 9459 ft 247 kts 87°
2026-05-06 22:59 -23.60848 -46.23863 9683 ft 247 kts 87°
2026-05-06 22:59 -23.60765 -46.21990 9968 ft 247 kts 87°
2026-05-06 23:00 -23.60686 -46.20110 10173 ft 248 kts 87°
2026-05-06 23:00 -23.60603 -46.18230 10375 ft 249 kts 87°
2026-05-06 23:00 -23.60519 -46.16344 10585 ft 249 kts 87°
2026-05-06 23:00 -23.60436 -46.14455 10787 ft 249 kts 87°
2026-05-06 23:01 -23.60353 -46.12590 11004 ft 250 kts 87°
2026-05-06 23:01 -23.60269 -46.10691 11213 ft 251 kts 87°
2026-05-06 23:01 -23.60185 -46.08792 11429 ft 251 kts 87°
2026-05-06 23:01 -23.60100 -46.06886 11634 ft 252 kts 87°
2026-05-06 23:02 -23.60014 -46.04972 11855 ft 253 kts 87°
2026-05-06 23:02 -23.59927 -46.03057 12076 ft 253 kts 87°
2026-05-06 23:02 -23.59841 -46.01137 12285 ft 254 kts 87°
2026-05-06 23:02 -23.59758 -45.99211 12495 ft 255 kts 87°
2026-05-06 23:03 -23.59669 -45.97279 12724 ft 256 kts 87°
2026-05-06 23:03 -23.59579 -45.95337 12939 ft 256 kts 87°
2026-05-06 23:03 -23.59492 -45.93398 13148 ft 257 kts 87°
2026-05-06 23:03 -23.59403 -45.91447 13356 ft 257 kts 87°
2026-05-06 23:04 -23.59313 -45.89494 13560 ft 258 kts 87°
2026-05-06 23:04 -23.59225 -45.87543 13769 ft 258 kts 87°
2026-05-06 23:04 -23.59134 -45.85591 13972 ft 258 kts 87°
2026-05-06 23:04 -23.59045 -45.83637 14160 ft 258 kts 87°
2026-05-06 23:05 -23.58955 -45.81678 14344 ft 258 kts 88°
2026-05-06 23:05 -23.58865 -45.79745 14518 ft 258 kts 87°
2026-05-06 23:05 -23.58774 -45.77785 14696 ft 258 kts 87°
2026-05-06 23:05 -23.58682 -45.75830 14883 ft 258 kts 88°
2026-05-06 23:06 -23.58592 -45.73866 15060 ft 258 kts 88°
2026-05-06 23:06 -23.58499 -45.71912 15250 ft 258 kts 87°
2026-05-06 23:06 -23.58408 -45.69955 15429 ft 258 kts 87°
2026-05-06 23:06 -23.58317 -45.68007 15610 ft 258 kts 87°
2026-05-06 23:07 -23.58225 -45.66051 15801 ft 258 kts 87°
2026-05-06 23:07 -23.58131 -45.64097 15994 ft 258 kts 87°
2026-05-06 23:07 -23.58039 -45.62169 16179 ft 257 kts 87°
2026-05-06 23:07 -23.57947 -45.60221 16350 ft 257 kts 87°
2026-05-06 23:08 -23.57854 -45.58274 16537 ft 257 kts 87°
2026-05-06 23:08 -23.57761 -45.56329 16712 ft 257 kts 87°
2026-05-06 23:08 -23.57667 -45.54371 16886 ft 257 kts 87°
2026-05-06 23:08 -23.57606 -45.53087 16997 ft 257 kts 87°
2026-05-06 23:09 -23.57512 -45.51139 17170 ft 257 kts 87°
2026-05-06 23:09 -23.57386 -45.48540 17399 ft 256 kts 87°
2026-05-06 23:09 -23.57322 -45.47259 17510 ft 256 kts 86°
2026-05-06 23:09 -23.57015 -45.45353 17668 ft 255 kts 77°
2026-05-06 23:10 -23.56877 -45.44742 17718 ft 255 kts 76°